Terug naar catalogus

STARLINK-36335

ActiefCommunicatieSSO
NORAD 68015·PAYLOAD·🇺🇸 United States

Gelanceerd Mar 1, 2026 vanaf Vandenberg Space Force Base

Loading…

Volgende Passages (komende 24 uur)

TLE

VersSource: CelesTrak SupGP

Epoch: Sep 15, 2026, 03:33 UTC

1 68015C 26040A   26258.14840278  .00056620  00000+0  17579-2 0  2586
2 68015  97.2850 205.4832 0001772  96.3880 222.7071 15.33404880    16

Volg STARLINK-36335 in realtime met AllMySat

Download on the App Store